星链-38049(STARLINK-38049)

导读

STARLINK-38049(NORAD ID 69751)是美国太空探索技术公司(SpaceX)星链(Starlink)低轨宽带通信星座的组网卫星之一,隶属于2026-147发射任务,于2026年6月28日从美国空军西部试验场(AFWTR,即范登堡太空军基地)由猎鹰9号火箭发射入轨,运行于近地轨道(LEO)。该卫星为星链批量部署的标准化通信载荷,主要用于扩展全球低轨互联网覆盖,为地面、海事及航空用户提供低延迟宽带接入服务,当前处于轨道部署后初期测试或组网运行阶段,暂无陨落或失效记录,是SpaceX持续扩建万级规模星链星座的最新批次组网卫星之一。

Basic Information
目录编号:
69751
目录名称:
STARLINK-38049
国际标识:
2026-150N
轨道中心:
EARTH
卫星名称:
星链-38049
卫星全名:
星链-38049(STARLINK-38049)
卫星状态:
在轨 (已飞行64 天)
发射日期:
2026-07-02 UTC
国别 :
美国 (US)
星等 :
--
Orbit Information
数据来源 国际轨道数据 AOE轨道数据
星历时间 2026-09-03T20:39:13+0800
1天前
查看轨道信息
2026-09-03T23:00:00+0800
1天前
查看轨道信息
半长轴 6843.671km 6843.743km
偏心率 0.0002143 0.0002004
轨道倾角 97.285° 97.288°
近地点辐角 101.092° 95.449°
升交点赤经 85.678° 85.776°
平近点角 259.057° 84.031°
近地点 464.067km 464.234km
远地点 467.001km 466.978km
周期 93.906分钟 93.907分钟
每日圈数 15.334483 15.334239
Detailed Information
固有亮度:
5
最大亮度:
2.5
卫星平台:
Starlink V1.0
覆盖范围:
全球
运营商:
太空探索技术公司
运营商所在国:
美国
制造商(研发单位):
太空探索技术公司
制造商所在国:
美国
使用方式:
暂无
Satellite Introduction
Starlink 计划是 SpaceX 推出的全球卫星互联网项目,通过发射低轨道卫星,为全球尤其是偏远地区提供高速、低延迟的互联网服务。自 2019 年起,Starlink 已部署数千颗卫星,旨在缩小全球数字鸿沟,推动互联网普及。该项目还为军事、航空等行业提供通信支持,带来广泛经济效益。
2D Orbit Map
3D Orbit Map
Orbit Altitude Analysis Chart
Orbit Inclination Analysis Chart
Orbit Comprehensive Analysis Chart
View Comprehensive Chart
Conjunction Data List
Event ID Objects TCA Miss Dist (km) Collision Risk Probability Collision Risk Index (CRI) Action
CDM_260905-190405-305906-975121
2026-09-05T
19:04:53+0000
1.137 km
极远距离
5.999255E-6 低风险 0.51
CDM_260904-200705-285806-975121
2026-09-04T
20:07:09+0000
2.885 km
极远距离
1.389286E-6 低风险 0.38
CDM_260903-085805-248806-975121
2026-09-03T
08:58:05+0000
2.893 km
极远距离
1.278574E-6 低风险 0.37
CDM_260905-181705-305906-975121
2026-09-05T
18:17:54+0000
1.949 km
极远距离
1.195844E-6 低风险 0.37
CDM_260828-215005-314206-975121
2026-08-28T
21:50:08+0000
2.540 km
极远距离
1.074853E-6 低风险 0.36
CDM_260906-115305-236706-975121
2026-09-06T
11:53:49+0000
2.466 km
极远距离
1.035044E-6 低风险 0.35